Regional Weather Roundup
Issued by NWS

Home | Current Version | Previous Version | Text Only | Print | Product List | Glossary On
Versions: 1 2 3 4 5 6 7 8 9 10 11 12 13 14 15 16 17 18 19 20 21 22 23 24 25 26 27 28 29 30 31 32 33 34 35 36 37 38 39 40 41 42 43 44 45 46 47 48 49 50
000
ASUS44 KLIX 211810
RWRLA
LOUISIANA WEATHER ROUNDUP
NATIONAL WEATHER SERVICE NEW ORLEANS LA
100 PM CDT THU AUG 21 2014

NOTE: "FAIR" INDICATES FEW OR NO CLOUDS BELOW 12,000 FEET WITH NO
      SIGNIFICANT WEATHER AND/OR OBSTRUCTIONS TO VISIBILITY.
      SKY/WX - SKY CONDITION AND SIGNIFICANT WEATHER.
      TMP - AIR TEMPERATURE.    DP   - DEWPOINT TEMPERATURE.
      RH  - RELATIVE HUMIDITY.  PRES - PRESSURE.
      HX  - HEAT INDEX.         WCI  - WIND CHILL INDEX.

*  THESE STATIONS ARE NOT NWS OR FAA STATIONS AND ARE NOT UNDER
   NWS QUALITY CONTROL.

LAZ040-048-061>063-065-066-069-211900-
SOUTHEAST LOUISIANA

CITY           SKY/WX    TMP DP  RH WIND       PRES   REMARKS
N.O. AUDUBON     N/A     98  75  47 MISG        N/A  HX 111
6HR MIN TEMP:  79; 6HR MAX TEMP:  99;

N.O. INTL ARPT PTSUNNY   91  76  61 NE5       30.12F HX 103
6HR MIN TEMP:  77; 6HR MAX TEMP:  93;

N.O. LAKEFRONT MOSUNNY   86  76  71 NE6       30.13F HX  96
6HR MIN TEMP:  80; 6HR MAX TEMP:  89; 6HR PCP:  0.15;

N.O. DOWNTOWN* MOCLDY    91  72  52 N3        30.12F HX  98
6HR MIN TEMP:  82; 6HR MAX TEMP:  93;

SLIDELL        MOSUNNY   92  73  53 VRB3      30.12F HX 100
6HR MIN TEMP:  74; 6HR MAX TEMP:  92;

BATON ROUGE    PTSUNNY   92  74  55 SW3       30.11F HX 101
6HR MIN TEMP:  74; 6HR MAX TEMP:  93;

BOOTHVILLE     PTSUNNY   89  76  65 E7        30.14F HX 100
6HR MIN TEMP:  82; 6HR MAX TEMP:  92;

BELLE CHASSE   PTSUNNY   93  72  50 S9        30.11F HX 101
6HR MIN TEMP:  75; 6HR MAX TEMP:  93;

BOGALUSA*      FAIR      94  70  46 CALM      30.14F HX 100
6HR MIN TEMP:  74; 6HR MAX TEMP:  94;

GALLIANO*      NOT AVBL
NEW ROADS*     FAIR      89  74  62 MISG      30.12F HX  98
6HR MIN TEMP:  75; 6HR MAX TEMP:  90;

GONZALES*      MOCLDY    90  77  65 CALM      30.11F HX 102
6HR MIN TEMP:  73; 6HR MAX TEMP:  91;

HAMMOND*       PTSUNNY   91  68  46 SE6       30.14S HX  95
HOUMA*         PTSUNNY   90  73  58 S5        30.12F HX  98
PORT FOURCHON* PTCLDY    90  75  62 S8        30.14F HX 100

$$

LAZ041-044-053-054-211900-
SOUTHWEST LOUISIANA

CITY           SKY/WX    TMP DP  RH WIND       PRES   REMARKS
LAKE CHARLES   MOSUNNY   91  76  61 SW10      30.10F HX 103
6HR MIN TEMP:  78; 6HR MAX TEMP:  91;

LAFAYETTE      MOSUNNY   92  75  57 VRB5      30.10S HX 103
6HR MIN TEMP:  76; 6HR MAX TEMP:  93;

PATTERSON      MOSUNNY  N/A N/A N/A MISG        N/A
SALT POINT       N/A     92  80  68 SW6       30.12S HX 110
6HR MIN TEMP:  82; 6HR MAX TEMP:  93; 6HR PCP:  0.03;

NEW IBERIA     PTSUNNY   89  75  63 CALM      30.11S THUNDER HX  99
6HR MIN TEMP:  77; 6HR MAX TEMP:  94;

CHENAULT AIRPK MOSUNNY   91  73  55 S12       30.11  HX 100

$$

LAZ027-028-211900-
CENTRAL LOUISIANA

CITY           SKY/WX    TMP DP  RH WIND       PRES   REMARKS
FORT POLK      MOSUNNY   90  75  62 S8        30.10F HX 100
6HR MIN TEMP:  77; 6HR MAX TEMP:  90;

ALEXANDRIA INT MOSUNNY   92  75  57 VRB7      30.09F HX 103
6HR MIN TEMP:  77; 6HR MAX TEMP:  94;

ALEXANDRIA     MOSUNNY   93  77  59 S7        30.11F HX 107
6HR MIN TEMP:  75; 6HR MAX TEMP:  93;


$$

LAZ001-002-211900-
NORTHWEST LOUISIANA

CITY           SKY/WX    TMP DP  RH WIND       PRES   REMARKS
SHREVEPORT     MOSUNNY   92  75  57 S7        30.09F HX 103
6HR MIN TEMP:  76; 6HR MAX TEMP:  92;

BARKSDALE AFB  MOSUNNY   92  73  53 SW8       30.09F HX 101
6HR MIN TEMP:  74; 6HR MAX TEMP:  93;

DTN SHREVEPORT MOSUNNY   92  74  55 W8        30.09F HX 101
6HR MIN TEMP:  76; 6HR MAX TEMP:  92;


$$

LAZ014-016-211900-
NORTHEAST LOUISIANA

CITY           SKY/WX    TMP DP  RH WIND       PRES   REMARKS
MONROE         MOSUNNY   91  75  59 SW7       30.12S HX 101
6HR MIN TEMP:  74; 6HR MAX TEMP:  91;

TALLULAH       MOSUNNY   91  74  57 SW5       30.12S HX 100
6HR MIN TEMP:  73; 6HR MAX TEMP:  93;


$$



USA.gov is the U.S. government's official web portal to all federal, state and local government web resources and services.